Burlington, IA

7:51 AM CDT on March 29, 2017 (GMT -0500)
Burlington Regional

Weather History for KBRL - January, 2013

Change the Weather History Date:

Thursday, January 3, 2013

  Actual Average Record
Temperature  
Mean Temperature 22 °F 26 °F  
Max Temperature 32 °F 34 °F 62 °F (1998)
Min Temperature 11 °F 18 °F -16 °F (1919)
Degree Days  
Heating Degree Days 43 39  
Month to date heating degree days 138 117  
Since 1 July heating degree days 2331 2303  
Cooling Degree Days 0 0  
Month to date cooling degree days 0 0  
Year to date cooling degree days 0 0  
Moisture  
Dew Point 20 °F    
Average Humidity 74    
Maximum Humidity 85    
Minimum Humidity 62    
Precipitation  
Precipitation 0.00 in 0.04 in 0.71 in (2005)
Month to date precipitation 0.00 0.13  
Year to date precipitation 0.00 0.13  
Sea Level Pressure  
Sea Level Pressure 30.29 in    
Wind  
Wind Speed 8 mph (WNW)    
Max Wind Speed 17 mph    
Max Gust Speed 26 mph    
Visibility 10 miles    
Events      
T = Trace of Precipitation, MM = Missing Value Source: NWS Daily Summary

Daily Weather History Graph

Daily Weather History Graph

Search for Another Location

Airport or City:

Trip Planner

Search our weather history database for the weather conditions in past years. The results will help you decide how hot, cold, wet, or windy it might be!

Date:

Astronomy

Jan. 03, 2013 Rise Set
Actual Time 7:28 AM CST 4:49 PM CST
Civil Twilight 6:58 AM CST 5:20 PM CST
Nautical Twilight 6:23 AM CST 5:54 PM CST
Astronomical Twilight 5:50 AM CST 6:27 PM CST
Moon 11:28 PM CST (1/3) 10:38 AM CST (1/3)
Length of Visible Light 10h 22m
Length of Day
9h 20m
Waning Gibbous, 65% of the Moon is Illuminated
Jan 3
Waning Gibbous
Jan 4
Last Quarter
Jan 11
New
Jan 18
First Quarter
Jan 26
Full

Hourly Weather History & Observations

Time (CST) Temp. Windchill Dew Point Humidity Pressure Visibility Wind Dir Wind Speed Gust Speed Precip Events Conditions
12:53 AM 28.9 °F 21.9 °F 23.0 °F 78% 30.17 in 10.0 mi West 6.9 mph - N/A   Overcast
1:53 AM 28.0 °F 20.0 °F 23.0 °F 81% 30.18 in 10.0 mi West 8.1 mph - N/A   Mostly Cloudy
2:53 AM 28.0 °F 20.0 °F 24.1 °F 85% 30.20 in 9.0 mi West 8.1 mph - N/A   Overcast
3:53 AM 28.9 °F 21.1 °F 24.1 °F 82% 30.20 in 9.0 mi West 8.1 mph - N/A   Overcast
4:53 AM 28.9 °F 22.8 °F 24.1 °F 82% 30.21 in 9.0 mi West 5.8 mph - N/A   Overcast
5:53 AM 28.9 °F 22.8 °F 24.1 °F 82% 30.22 in 10.0 mi West 5.8 mph - N/A   Overcast
6:44 AM 28.4 °F 22.2 °F 24.8 °F 86% 30.21 in 10.0 mi West 5.8 mph - N/A   Overcast
6:53 AM 28.9 °F 22.8 °F 24.1 °F 82% 30.24 in 10.0 mi West 5.8 mph - N/A   Overcast
7:53 AM 30.0 °F 23.2 °F 25.0 °F 82% 30.25 in 9.0 mi West 6.9 mph - N/A   Overcast
8:53 AM 30.9 °F 24.3 °F 26.1 °F 82% 30.27 in 9.0 mi West 6.9 mph - N/A   Overcast
9:22 AM 32.0 °F 25.6 °F 26.6 °F 80% 30.25 in 10.0 mi West 6.9 mph - N/A   Overcast
9:42 AM 32.0 °F 25.6 °F 26.6 °F 80% 30.26 in 9.0 mi WNW 6.9 mph - N/A   Overcast
9:53 AM 32.0 °F 23.0 °F 26.1 °F 79% 30.29 in 9.0 mi NW 11.5 mph - N/A   Overcast
10:04 AM 32.0 °F 24.2 °F 26.6 °F 80% 30.27 in 10.0 mi NW 9.2 mph - N/A   Overcast
10:53 AM 27.0 °F 16.7 °F 21.0 °F 78% 30.32 in 10.0 mi NW 11.5 mph 18.4 mph N/A   Overcast
11:02 AM 26.6 °F 18.2 °F 21.2 °F 80% 30.30 in 8.0 mi NNW 8.1 mph 18.4 mph N/A   Overcast
11:15 AM 26.6 °F 17.5 °F 21.2 °F 80% 30.29 in 8.0 mi NW 9.2 mph - N/A   Overcast
11:53 AM 27.0 °F 17.3 °F 19.0 °F 72% 30.32 in 10.0 mi NW 10.4 mph - N/A   Overcast
12:53 PM 28.0 °F 17.0 °F 18.0 °F 66% 30.30 in 10.0 mi WNW 13.8 mph 20.7 mph N/A   Scattered Clouds
1:53 PM 30.0 °F 19.1 °F 19.9 °F 66% 30.31 in 10.0 mi NW 15.0 mph 20.7 mph N/A   Mostly Cloudy
2:06 PM 28.4 °F 17.0 °F 17.6 °F 64% 30.28 in 10.0 mi WNW 15.0 mph 21.9 mph N/A   Scattered Clouds
2:53 PM 27.0 °F 15.6 °F 17.1 °F 66% 30.32 in 10.0 mi WNW 13.8 mph 19.6 mph N/A   Clear
3:53 PM 27.0 °F 18.0 °F 16.0 °F 63% 30.34 in 9.0 mi WNW 9.2 mph - N/A   Clear
4:53 PM 24.1 °F 18.2 °F 14.0 °F 65% 30.35 in 9.0 mi NW 4.6 mph - N/A   Clear
5:53 PM 21.9 °F 13.4 °F 14.0 °F 72% 30.37 in 10.0 mi NNW 6.9 mph - N/A   Clear
6:53 PM 19.9 °F 9.3 °F 12.0 °F 71% 30.38 in 10.0 mi NW 9.2 mph - N/A   Clear
7:53 PM 18.0 °F 8.7 °F 10.0 °F 71% 30.40 in 10.0 mi NW 6.9 mph - N/A   Clear
8:53 PM 15.1 °F 7.7 °F 10.0 °F 80% 30.41 in 10.0 mi WNW 4.6 mph - N/A   Clear
9:53 PM 14.0 °F 8.2 °F 9.0 °F 80% 30.40 in 10.0 mi West 3.5 mph - N/A   Clear
10:53 PM 12.9 °F 5.2 °F 8.1 °F 81% 30.39 in 10.0 mi WNW 4.6 mph - N/A   Clear
11:53 PM 12.9 °F 6.9 °F 8.1 °F 81% 30.38 in 10.0 mi WSW 3.5 mph - N/A   Clear